Caldwell, NJ

9:20 AM EDT on September 19, 2019 (GMT -0400)
Essex County

Weather History for KCDW - August, 2019

Change the Weather History Date:

Saturday, August 24, 2019

  Actual Average Record
Temperature  
Mean Temperature 68 °F -  
Max Temperature 77 °F 81 °F 91 °F (1980)
Min Temperature 59 °F 57 °F 44 °F (1952)
Cooling Degree Days 3    
Growing Degree Days 18 (Base 50)    
Moisture  
Dew Point 53 °F    
Average Humidity 61    
Maximum Humidity 90    
Minimum Humidity 35    
Precipitation  
Precipitation 0.00 in - - ()
Sea Level Pressure  
Sea Level Pressure 30.19 in    
Wind  
Wind Speed 3 mph ()    
Max Wind Speed 9 mph    
Max Gust Speed 16 mph    
Visibility 10.0 miles    
Events      
Averages and records for this station are not official NWS values.
T = Trace of Precipitation, MM = Missing Value Source: Averaged Metar Reports

Daily Weather History Graph

Daily Weather History Graph

Search for Another Location

Airport or City:

Astronomy

Aug. 24, 2019 Rise Set
Actual Time 6:15 AM EDT 7:42 PM EDT
Civil Twilight 5:47 AM EDT 8:11 PM EDT
Nautical Twilight 5:12 AM EDT 8:45 PM EDT
Astronomical Twilight 4:35 AM EDT 9:22 PM EDT
Moon 12:06 AM EDT (8/24) 2:56 PM EDT (8/24)
Length of Visible Light 14h 24m
Length of Day
13h 26m
Last Quarter, 39% of the Moon is Illuminated
Aug 24
Last Quarter
Aug 30
New
Sep 5
First Quarter
Sep 14
Full
Sep 21
Last Quarter

Hourly Weather History & Observations

Time (EDT) Temp. Dew Point Humidity Pressure Visibility Wind Dir Wind Speed Gust Speed Precip Events Conditions
12:53 AM 62.1 °F 57.9 °F 86% 30.11 in 10.0 mi Calm Calm - N/A   Clear
1:53 AM 62.1 °F 57.9 °F 86% 30.11 in 10.0 mi Calm Calm - N/A   Mostly Cloudy
2:53 AM 64.0 °F 55.9 °F 75% 30.11 in 10.0 mi NE 3.5 mph - N/A   Mostly Cloudy
3:53 AM 64.0 °F 55.0 °F 73% 30.12 in 10.0 mi NE 3.5 mph - N/A   Mostly Cloudy
4:53 AM 62.1 °F 54.0 °F 75% 30.14 in 10.0 mi ENE 3.5 mph - N/A   Scattered Clouds
5:53 AM 61.0 °F 55.0 °F 81% 30.16 in 10.0 mi NE 3.5 mph - N/A   Clear
6:53 AM 59.0 °F 55.9 °F 90% 30.19 in 10.0 mi Calm Calm - N/A   Clear
7:53 AM 64.0 °F 55.0 °F 73% 30.20 in 10.0 mi Variable 4.6 mph - N/A   Clear
8:53 AM 68.0 °F 55.0 °F 63% 30.21 in 10.0 mi North 4.6 mph - N/A   Clear
9:53 AM 71.1 °F 54.0 °F 55% 30.22 in 10.0 mi Variable 3.5 mph - N/A   Clear
11:53 AM 73.9 °F 50.0 °F 43% 30.21 in 10.0 mi Variable 6.9 mph - N/A   Clear
12:53 PM 75.0 °F 48.9 °F 40% 30.20 in 10.0 mi North 9.2 mph 16.1 mph N/A   Clear
1:53 PM 75.9 °F 46.0 °F 35% 30.20 in 10.0 mi NNW 8.1 mph - N/A   Clear
2:53 PM 77.0 °F 48.9 °F 37% 30.20 in 10.0 mi Variable 5.8 mph - N/A   Scattered Clouds
3:53 PM 73.9 °F 48.9 °F 41% 30.19 in 10.0 mi NE 6.9 mph - N/A   Scattered Clouds
4:53 PM 75.9 °F 46.9 °F 36% 30.19 in 10.0 mi Variable 6.9 mph - N/A   Clear
5:53 PM 75.0 °F 48.0 °F 38% 30.20 in 10.0 mi Variable 3.5 mph - N/A   Scattered Clouds
6:53 PM 73.9 °F 50.0 °F 43% 30.20 in 10.0 mi Calm Calm - N/A   Clear
7:53 PM 69.1 °F 54.0 °F 58% 30.22 in 10.0 mi Calm Calm - N/A   Clear
8:53 PM 66.9 °F 55.0 °F 66% 30.24 in 10.0 mi Calm Calm - N/A   Mostly Cloudy
9:53 PM 68.0 °F 55.9 °F 65% 30.26 in 10.0 mi Calm Calm - N/A   Overcast
10:53 PM 68.0 °F 57.0 °F 68% 30.27 in 10.0 mi Calm Calm - N/A   Overcast
11:53 PM 66.0 °F 57.9 °F 75% 30.27 in 10.0 mi Calm Calm - N/A   Overcast